This is the latest recevied weather packets stored in our database for station/object KK7ISX. If no packets are shown the sender has not sent any weather packets the latest 10 day(s).
| Time | Temp. | Humidity | Pressure | Rain* | Wind** | Luminosity | Snow |
|---|---|---|---|---|---|---|---|
| 1777849800 | 27.22° C | 30% | 1009.1 hPa | 0 mm | - | 417 W/m² | - |
| 1777849496 | 27.22° C | 28% | 1009.1 hPa | 0 mm | - | 431 W/m² | - |
| 1777849194 | 26.67° C | 28% | 1009.4 hPa | 0 mm | - | 446 W/m² | - |
| 1777848890 | 26.67° C | 29% | 1009.3 hPa | 0 mm | - | 458 W/m² | - |
| 1777848586 | 26.67° C | 28% | 1009.5 hPa | 0 mm | - | 471 W/m² | - |
| 1777848283 | 27.22° C | 28% | 1009.6 hPa | 0 mm | - | 481 W/m² | - |
| 1777847981 | 26.67° C | 27% | 1009.5 hPa | 0 mm | - | 492 W/m² | - |
| 1777847679 | 26.67° C | 27% | 1009.6 hPa | 0 mm | - | 503 W/m² | - |
| 1777847374 | 26.67° C | 27% | 1009.8 hPa | 0 mm | - | 517 W/m² | - |
| 1777847073 | 26.11° C | 29% | 1009.8 hPa | 0 mm | - | 530 W/m² | - |
| 1777846771 | 26.67° C | 26% | 1010 hPa | 0 mm | - | 542 W/m² | - |
| 1777846469 | 26.67° C | 29% | 1009.9 hPa | 0 mm | - | 551 W/m² | - |
| 1777846165 | 26.11° C | 30% | 1009.9 hPa | 0 mm | - | 566 W/m² | - |
| 1777845861 | 26.11° C | 27% | 1010.3 hPa | 0 mm | - | 578 W/m² | - |
| 1777845559 | 26.67° C | 31% | 1010.4 hPa | 0 mm | - | 586 W/m² | - |
| 1777845256 | 26.11° C | 30% | 1010.3 hPa | 0 mm | - | 597 W/m² | - |
| 1777844953 | 26.11° C | 31% | 1010.5 hPa | 0 mm | - | 609 W/m² | - |
| 1777844650 | 26.11° C | 31% | 1010.7 hPa | 0 mm | - | 617 W/m² | - |
| 1777844348 | 26.67° C | 31% | 1010.7 hPa | 0 mm | - | 623 W/m² | - |
| 1777844046 | 25.56° C | 31% | 1010.5 hPa | 0 mm | - | 633 W/m² | - |
| 1777843742 | 26.11° C | 34% | 1010.8 hPa | 0 mm | - | 642 W/m² | - |
| 1777843440 | 25.56° C | 35% | 1010.9 hPa | 0 mm | - | 649 W/m² | - |
| 1777843137 | 25.56° C | 35% | 1010.9 hPa | 0 mm | - | 655 W/m² | - |
| 1777842833 | 25° C | 35% | 1011.1 hPa | 0 mm | - | 663 W/m² | - |
| 1777842528 | 25° C | 34% | 1011.1 hPa | 0 mm | - | 667 W/m² | - |
* Rain latest hour (hover to see other rain measurements)
** Current wind speed in m/s (hover to see current wind gust speed)